Location: Proctor
(47.8934°N, 114.3048°W)
Time: 21:45:51
(UTC+00:00)

CAS-6 - Pass Details

Date: 04 July 2022
Orbit: 613 x 634 km, 97.9° (Epoch: 11 August)

Event Time Altitude Azimuth Distance (km) Brightness Sun altitude
Exits shadow 06:22:36 23° 206° (SSW) 1,352 ? -17.0°
Maximum altitude 06:24:53 40° 262° (W) 923 ? -17.2°
Drops below altitude 10° 06:28:59 10° 333° (NNW) 2,000 ? -17.4°
Sets 06:31:18 0° 341° (NNW) 2,908 ? -17.5°
